Theta_e
315 315 315 314 313 314 312 312 313 313 314 315 314 313 314 314 314 314 314 312 312 313 313 314 316 313 295 288 289 298 308 304 300 299 296 296 293 288 284 287 287 287 288 290 291 291 289
316 316 315 314 314 314 313 313 313 313 313 315 313 313 313 313 314 314 313 312 312 313 313 313 315 307 290 283 296 298 298 299 298 297 295 297 295 295 290 288 285 288 289 289 289 289 288
317 316 315 314 314 314 314 314 314 313 314 314 313 313 313 313 313 313 312 312 312 313 313 313 313 295 289 287 295 297 298 296 297 297 293 296 298 293 293 287 291 290 284 283 285 286 286
318 317 317 316 315 315 315 315 314 312 314 313 313 312 312 313 313 311 312 312 312 313 312 312 307 290 285 294 297 296 297 296 298 299 297 299 300 295 290 290 286 281 281 278 283 286 287
319 318 317 317 316 316 315 315 313 313 314 313 313 312 313 313 312 311 311 311 311 308 307 304 292 285 282 299 293 295 295 294 295 295 295 298 295 287 287 281 278 281 276 278 280 286 285
320 319 318 318 317 316 315 315 314 313 314 313 313 312 313 312 311 311 309 308 307 301 298 294 293 284 288 288 293 295 295 296 293 291 290 289 285 282 282 280 274 277 277 279 278 282 284
320 320 319 318 318 317 316 316 315 314 314 313 312 312 312 312 310 309 298 289 286 286 290 285 286 285 288 293 294 293 295 293 291 287 282 285 280 278 280 283 282 281 279 278 281 284 282
320 320 319 319 319 318 317 316 315 314 313 313 311 312 312 310 310 307 296 290 289 289 283 288 289 289 290 291 287 291 295 288 285 281 283 279 278 282 285 284 282 281 280 278 282 283 282
320 320 319 319 319 318 317 316 315 315 313 312 311 312 310 309 308 296 294 292 299 294 282 283 288 288 289 291 286 288 292 287 283 280 280 278 279 284 282 281 282 281 280 279 279 281 282
321 320 319 319 318 318 317 316 316 315 314 311 310 311 308 307 296 292 291 298 298 293 276 280 282 286 289 289 284 291 292 288 283 279 280 279 282 281 281 281 282 278 282 280 279 278 272
321 320 319 318 318 317 316 316 315 314 313 311 310 309 306 302 291 289 294 298 295 289 270 281 282 292 289 285 285 285 291 287 281 280 279 276 278 279 279 281 283 279 282 280 280 278 278
321 320 319 318 317 317 316 315 315 314 312 310 311 307 307 298 293 293 296 292 289 278 270 277 282 283 282 283 283 285 285 288 285 279 279 278 281 281 281 283 282 283 281 280 279 278 270
321 320 319 319 318 317 316 316 315 314 312 310 310 306 300 297 289 295 292 286 277 273 278 274 278 282 281 280 281 281 281 279 276 269 270 275 276 279 282 278 281 281 277 265 264 264 266
320 320 319 319 318 317 316 316 315 314 312 311 306 301 297 295 293 293 287 280 270 267 267 280 279 280 278 279 279 278 279 275 279 274 269 268 268 277 281 278 277 278 277 265 259 263 270
317 319 319 318 318 317 316 316 315 313 312 308 303 293 292 292 294 289 282 271 275 271 275 278 276 269 268 277 276 276 275 275 278 278 267 267 270 278 280 280 280 275 269 279 275 268 270
313 316 318 318 318 317 316 315 314 312 311 306 294 291 290 294 291 285 277 278 273 279 281 278 271 268 265 266 273 273 271 278 280 281 279 274 265 276 278 280 281 278 281 270 268 263 264
311 313 315 317 317 317 316 315 314 312 309 303 293 287 292 294 289 282 274 274 277 282 283 278 271 266 268 267 270 267 269 277 279 280 280 277 272 272 276 276 274 272 269 272 277 275 268
310 311 313 315 317 316 316 315 314 312 307 301 291 284 293 291 279 269 274 276 284 282 284 281 278 275 271 270 266 270 272 276 281 280 273 279 272 267 270 275 276 277 274 273 266 269 274
309 310 312 314 315 316 316 315 314 310 306 296 288 287 293 289 275 274 276 281 283 283 282 282 280 280 276 270 269 270 275 280 282 280 275 276 266 260 267 272 275 275 278 278 271 272 270
307 308 310 312 314 315 315 315 313 309 305 296 289 282 284 286 283 281 278 279 280 284 283 283 281 281 276 271 275 269 275 280 282 281 285 282 270 264 264 269 271 271 274 276 270 268 272
305 306 308 309 311 314 315 314 312 309 306 297 289 285 284 278 280 282 282 280 280 279 282 283 280 280 278 270 271 271 275 277 279 282 280 278 264 266 270 273 272 272 272 273 271 273 271
304 305 306 308 310 312 314 314 312 309 306 295 286 284 284 281 283 281 283 278 280 280 281 280 278 281 279 274 276 271 274 274 275 277 277 277 265 272 266 272 273 271 273 274 274 274 275
302 304 305 306 308 310 312 314 313 307 305 294 292 291 289 284 282 281 280 281 281 282 282 283 282 280 279 279 278 277 278 278 278 275 273 273 268 262 259 269 269 266 274 277 275 277 275
302 302 303 305 307 309 311 313 313 307 307 297 292 292 287 283 283 282 282 282 281 282 280 281 282 280 280 280 279 277 275 278 278 277 279 271 271 264 260 261 260 275 274 276 275 277 279
299 300 301 303 306 307 309 311 313 307 309 301 295 294 291 285 285 283 282 282 282 282 281 281 281 281 281 278 272 264 263 265 263 274 276 280 275 259 256 259 267 273 277 277 275 276 282
297 298 300 302 305 306 308 310 312 308 309 305 297 302 297 287 284 286 283 284 280 281 280 280 282 281 279 275 266 263 264 258 259 262 277 279 277 262 256 254 258 272 277 280 281 273 281
296 297 298 302 305 306 308 309 312 310 309 306 298 301 297 289 287 287 284 283 285 284 280 279 280 279 279 269 261 263 264 261 262 261 266 266 270 263 261 257 263 273 276 281 269 274 281
296 296 299 301 302 305 307 309 311 309 308 307 296 301 302 291 286 288 288 285 284 284 280 280 280 278 270 269 267 264 261 263 261 265 267 265 265 260 259 259 261 274 278 276 278 281 280
294 295 298 298 302 304 306 308 310 309 308 307 292 296 293 288 284 286 285 286 286 288 284 282 282 278 279 269 265 263 260 260 260 262 271 265 270 267 268 269 276 276 278 281 282 281 279
Wind_Speed
7 7 6 5 4 5 4 4 5 6 8 9 11 12 12 13 13 14 14 15 15 14 12 11 13 10 4 8 2 6 18 15 5 6 8 5 8 3 4 1 2 3 5 7 7 7 6
9 8 7 6 5 4 4 5 5 6 7 9 11 11 12 12 13 14 16 16 15 13 10 10 12 3 6 7 5 7 9 8 7 5 7 8 3 3 5 2 3 3 3 8 4 7 5
11 9 8 7 7 6 5 5 5 6 7 8 10 11 13 13 13 14 15 17 15 12 9 7 7 4 8 4 4 7 7 3 4 2 3 3 2 5 1 2 3 3 5 7 0 4 5
13 11 10 9 9 7 7 6 5 5 6 8 10 11 13 13 14 17 18 16 12 9 7 6 5 4 3 2 3 6 7 3 6 3 1 3 3 5 5 3 5 5 5 6 7 8 4
14 12 11 10 11 7 6 6 5 5 5 7 9 10 12 13 14 16 19 13 6 5 4 5 3 3 2 6 7 6 5 4 5 4 6 3 5 4 7 4 4 7 3 4 10 2 3
13 12 11 11 11 9 8 7 6 5 5 7 8 10 12 13 15 17 14 6 6 5 5 2 3 4 7 6 6 8 5 4 5 3 5 9 6 5 5 7 2 5 4 4 9 6 5
14 14 13 12 11 9 8 7 7 6 6 6 8 9 11 12 15 17 8 4 7 5 11 4 1 1 3 8 3 7 4 5 4 10 6 6 7 4 3 2 5 3 4 10 13 11 6
16 16 14 13 12 11 10 8 8 7 5 6 7 8 8 11 14 14 3 6 1 2 5 2 1 2 2 2 5 9 6 7 7 5 6 5 3 1 5 4 3 2 7 8 10 4 7
18 17 16 14 13 13 11 9 9 7 5 4 7 8 7 9 8 6 4 3 2 1 4 3 2 3 4 5 3 9 7 3 5 5 5 1 1 3 3 2 4 3 4 5 6 16 2
19 19 17 16 14 13 13 11 9 7 4 2 5 5 9 7 6 1 3 3 1 1 6 4 3 3 2 2 3 3 5 2 5 4 3 3 3 3 3 2 1 6 3 7 12 9 5
21 20 19 17 15 14 13 12 10 9 6 3 3 3 7 8 4 4 2 4 1 4 5 2 5 2 3 6 4 3 5 5 3 4 3 2 4 4 2 2 2 9 8 14 9 5 5
22 21 20 19 17 16 15 14 12 10 8 4 2 1 2 4 3 1 1 2 3 10 7 4 3 6 3 6 5 6 6 7 1 2 1 5 3 3 3 6 3 8 7 9 1 0 3
21 21 21 21 19 18 17 16 14 12 9 7 6 5 4 1 2 2 3 4 8 7 3 6 2 4 2 6 5 8 5 8 6 8 9 8 1 3 2 5 2 10 7 6 8 6 6
16 18 22 22 21 20 19 17 16 14 12 10 11 7 5 2 1 3 4 8 5 3 7 0 2 2 2 5 3 6 3 4 6 6 3 4 10 4 4 1 3 4 3 5 5 4 11
16 16 18 22 23 23 21 20 19 17 16 16 12 2 3 2 1 3 7 5 9 8 6 8 2 6 5 2 1 2 3 3 2 3 5 3 8 3 2 2 3 5 2 5 6 2 4
19 18 16 18 23 23 24 24 21 21 20 19 4 4 1 1 2 5 7 6 4 2 5 4 5 2 4 4 0 3 1 3 4 2 3 2 6 1 5 2 1 4 3 5 4 5 7
21 20 18 17 21 24 24 25 26 25 24 16 4 4 2 2 2 6 4 7 4 3 3 4 6 4 4 3 1 1 3 3 2 3 2 4 4 6 2 1 2 5 4 2 2 2 4
23 20 19 18 17 23 24 25 27 29 26 7 3 2 1 2 4 1 3 6 4 4 2 2 4 4 6 6 3 2 4 5 3 3 4 3 4 6 8 3 3 1 4 4 4 5 4
23 22 17 19 18 19 24 26 29 33 29 7 3 3 1 1 5 3 3 1 3 5 5 5 4 1 3 5 1 3 4 2 2 5 5 4 3 5 11 6 3 2 3 2 1 0 8
22 23 20 17 17 18 24 26 32 38 23 9 4 4 3 1 2 7 6 4 4 2 3 4 4 4 4 2 2 5 4 2 2 3 3 6 3 8 9 7 2 6 6 7 5 4 4
23 23 23 21 18 17 18 29 35 38 32 6 4 4 3 6 6 5 6 7 6 7 1 4 1 6 7 4 1 4 2 2 1 2 3 4 4 4 9 17 9 14 17 12 10 13 6
26 25 23 23 19 18 17 22 35 37 32 5 8 7 2 2 4 10 8 10 11 5 9 6 5 9 7 7 8 10 7 4 6 3 5 1 4 3 7 4 3 10 17 16 15 12 16
29 26 24 23 25 20 20 18 31 40 28 5 2 4 5 2 3 7 7 7 11 10 4 2 8 6 6 8 6 2 2 5 6 8 6 5 1 3 8 6 10 5 7 6 4 6 6
23 22 25 24 26 24 20 21 29 44 32 5 4 6 7 4 5 5 6 5 9 9 8 4 6 5 2 9 10 7 8 8 6 3 2 5 1 1 6 8 5 6 4 6 7 11 8
20 25 25 24 27 28 21 25 28 42 34 5 6 7 5 5 6 3 7 4 8 5 3 5 2 1 8 2 6 6 6 6 5 3 2 3 3 1 1 3 11 7 3 4 4 7 4
20 20 23 25 28 28 25 24 28 45 41 9 7 3 6 7 11 10 7 5 6 5 3 3 4 3 5 3 5 5 5 5 3 6 3 4 3 5 1 2 6 6 4 2 5 5 4
16 18 24 22 28 29 26 23 27 38 39 14 5 5 6 5 4 12 7 9 7 5 5 5 6 3 3 3 4 4 5 1 3 9 8 3 3 6 4 5 13 11 5 2 5 6 4
14 21 25 20 26 26 26 23 27 38 43 21 2 11 9 5 3 5 10 9 5 4 7 7 6 1 3 3 5 5 4 7 1 4 8 10 10 6 3 1 10 9 5 7 4 2 3
13 26 19 24 28 27 27 24 27 38 41 28 4 3 5 6 3 2 3 3 2 4 9 9 2 6 6 5 0 4 3 2 3 4 1 4 9 8 13 12 5 7 5 3 3 4 3
Wind_Direction
250 256 258 267 284 308 307 323 338 338 342 344 345 343 338 338 339 335 334 333 338 334 336 342 351 354 62 42 41 321 335 339 4 9 34 48 48 63 82 40 9 47 330 318 312 304 277
255 260 256 262 259 279 288 302 323 327 334 340 342 340 334 335 336 333 330 330 328 321 325 341 353 23 69 70 274 336 336 347 12 17 19 33 74 73 99 85 76 287 288 293 317 302 307
248 254 253 254 260 268 270 277 304 317 331 337 339 335 329 331 332 330 326 325 320 313 313 334 9 66 65 162 323 320 354 309 330 17 50 28 50 76 139 83 311 326 360 336 286 333 304
249 246 251 250 253 259 265 268 296 309 326 337 337 335 330 331 332 327 325 321 316 307 313 340 42 73 105 278 281 348 339 328 359 47 54 33 56 92 47 339 25 41 53 357 300 341 311
248 249 261 240 261 249 269 252 278 299 316 332 334 335 332 333 332 327 328 317 316 312 341 355 44 81 32 329 8 320 32 338 305 2 21 46 60 68 7 32 29 24 294 298 312 354 271
244 241 242 243 255 237 243 251 265 279 300 322 333 336 333 334 332 331 324 300 331 14 354 14 65 46 17 311 303 324 327 359 27 353 17 34 47 64 25 26 338 305 328 259 274 281 340
235 236 231 238 241 236 240 246 250 270 290 314 333 336 338 337 333 342 350 22 20 353 41 80 298 128 320 295 281 341 347 5 16 56 23 355 56 37 335 258 233 233 238 259 269 278 295
230 232 225 230 237 225 229 234 239 261 278 311 327 328 343 337 336 350 48 76 116 232 84 37 299 355 283 329 1 338 19 54 44 39 346 18 57 325 290 255 260 242 274 281 283 252 325
225 228 222 226 232 226 218 224 236 245 265 307 321 323 338 337 355 31 50 93 331 251 87 22 30 10 325 10 25 331 22 53 60 47 24 116 19 322 304 319 347 272 240 290 289 321 312
221 224 220 221 222 226 211 212 221 225 225 277 312 328 349 335 57 355 20 319 53 26 71 303 335 359 352 349 72 334 4 55 43 28 350 220 333 340 320 25 358 308 185 289 300 333 296
218 218 218 215 219 213 209 204 204 214 203 229 309 330 40 37 143 68 324 318 320 69 25 290 318 317 349 75 289 5 331 17 77 334 36 301 340 330 344 322 325 257 320 293 302 278 305
220 217 215 214 212 210 201 199 196 200 190 177 177 315 14 26 49 150 301 305 24 46 265 333 324 343 17 17 11 310 16 38 108 82 292 263 295 255 284 295 272 296 314 317 102 29 275
240 216 215 213 210 210 200 195 190 186 176 159 140 92 70 42 154 22 359 32 44 122 353 295 347 16 66 349 3 22 49 24 38 33 0 326 264 297 346 318 3 12 5 345 356 5 235
270 248 217 213 211 208 198 191 188 176 160 149 128 97 30 72 300 95 66 45 91 205 217 320 37 21 78 350 17 3 71 58 40 63 71 37 329 14 355 57 298 345 65 129 285 295 292
291 270 244 218 213 205 200 195 182 167 154 142 127 55 70 309 117 70 75 60 210 199 164 151 57 74 322 316 283 67 63 127 97 99 122 45 277 323 263 272 133 286 4 195 260 248 279
284 279 261 239 220 208 200 191 178 162 152 148 115 104 174 290 111 66 78 233 196 187 131 111 152 119 186 265 238 64 3 251 131 122 144 162 312 225 279 294 203 150 306 12 358 310 294
270 275 270 250 232 212 202 191 172 162 151 149 90 103 180 138 79 50 171 218 208 221 133 136 178 133 216 220 169 185 196 238 140 150 116 133 124 279 343 222 187 344 351 346 266 234 272
264 263 267 259 238 221 204 191 175 155 145 132 141 134 174 169 71 353 182 185 167 149 170 96 108 118 168 167 136 166 190 199 133 138 146 167 172 275 254 259 281 265 224 152 127 301 268
262 259 260 259 245 227 211 191 171 154 148 121 114 101 9 263 152 221 294 167 196 145 181 161 152 128 146 169 70 201 225 199 171 161 163 186 287 335 344 4 13 246 189 183 106 77 238
269 264 253 262 258 238 219 195 171 154 149 97 129 128 336 333 277 144 145 204 191 228 152 137 126 108 109 69 353 198 219 199 155 185 185 159 175 178 204 218 109 287 273 279 161 242 268
265 268 268 252 259 244 226 187 173 160 152 106 138 194 180 196 231 170 157 144 144 179 190 173 111 212 167 135 263 231 241 187 143 217 129 149 229 202 257 267 272 268 266 258 209 230 251
258 261 263 264 248 252 227 213 176 164 150 101 140 148 134 283 165 137 169 208 175 177 156 213 203 186 180 163 192 198 150 201 180 162 146 88 273 315 288 300 171 273 266 258 245 248 251
257 256 255 257 251 240 235 214 188 163 154 131 216 110 101 153 193 140 199 184 194 145 239 150 166 132 192 229 152 52 70 105 155 147 163 152 135 34 271 335 309 322 230 208 239 207 201
257 263 265 252 253 238 234 211 193 172 176 118 175 121 117 178 231 200 152 142 174 193 151 139 136 136 158 118 91 46 44 58 57 54 123 123 129 117 276 338 5 245 283 218 228 258 240
274 256 270 255 251 238 227 224 196 184 186 140 160 143 141 171 175 115 152 136 97 109 82 119 77 34 159 80 76 26 341 23 343 356 292 186 164 287 141 249 295 303 202 167 157 284 214
260 269 278 256 260 233 226 226 204 186 195 177 175 166 121 128 210 125 145 213 147 149 99 72 59 86 71 70 82 169 228 195 295 5 342 143 135 123 60 143 226 241 139 99 116 294 197
255 284 289 271 251 225 222 221 211 186 191 184 158 200 118 141 164 136 167 184 157 121 117 134 161 137 41 104 101 169 239 243 204 161 174 156 194 208 194 250 284 253 217 138 78 241 209
270 305 282 266 279 231 220 215 213 187 188 189 138 196 173 137 169 172 152 152 136 162 147 149 101 258 57 148 150 203 157 208 102 183 174 165 164 200 123 207 288 177 93 180 191 165 165
281 294 281 267 266 228 218 216 209 188 190 178 123 116 62 80 102 71 51 82 94 122 123 183 129 154 159 98 216 100 158 115 167 246 154 242 193 180 188 214 248 206 236 177 162 185 170